ASA194 KSFO-KLAX

Flight info

Callsign ASA194
Flight time 0h 55m
Altitude 35000
Route WESLA5 SUSEY EBAYE BURGL IRNMN2
Aircraft B738/M-SDE2E3FGHIRWXY/LB1

Departure

Time 2026-04-22 01:31
Airport San Francisco International Airport (KSFO)

Arrival

Time 2026-04-22 02:27
Airport Los Angeles International Airport (KLAX)
Time Latitude Longitude Altitude Speed Heading
2026-04-22 01:06 37.61177 -122.38633 23 ft 0 kts 118°
2026-04-22 01:19 37.61183 -122.38647 21 ft 4 kts 118°
2026-04-22 01:19 37.61194 -122.38675 24 ft 2 kts 118°
2026-04-22 01:19 37.61207 -122.38698 23 ft 4 kts 155°
2026-04-22 01:20 37.61230 -122.38698 22 ft 4 kts 208°
2026-04-22 01:20 37.61243 -122.38689 22 ft 3 kts 207°
2026-04-22 01:20 37.61219 -122.38705 23 ft 4 kts 207°
2026-04-22 01:20 37.61202 -122.38716 22 ft 0 kts 207°
2026-04-22 01:25 37.61178 -122.38732 22 ft 8 kts 208°
2026-04-22 01:25 37.61056 -122.38814 21 ft 30 kts 199°
2026-04-22 01:25 37.60926 -122.38664 21 ft 30 kts 117°
2026-04-22 01:26 37.60874 -122.38454 21 ft 19 kts 105°
2026-04-22 01:26 37.60906 -122.38374 23 ft 17 kts 31°
2026-04-22 01:26 37.61039 -122.38288 23 ft 26 kts 27°
2026-04-22 01:26 37.61204 -122.38177 21 ft 27 kts 28°
2026-04-22 01:27 37.61358 -122.38060 22 ft 25 kts 58°
2026-04-22 01:27 37.61310 -122.37863 21 ft 24 kts 115°
2026-04-22 01:27 37.61365 -122.37621 21 ft 41 kts 31°
2026-04-22 01:27 37.61633 -122.37444 22 ft 32 kts 27°
2026-04-22 01:28 37.61646 -122.37334 21 ft 15 kts 119°
2026-04-22 01:28 37.61594 -122.37213 22 ft 17 kts 117°
2026-04-22 01:28 37.61529 -122.37057 21 ft 22 kts 117°
2026-04-22 01:28 37.61426 -122.36870 21 ft 26 kts 134°
2026-04-22 01:29 37.61326 -122.36687 22 ft 25 kts 117°
2026-04-22 01:29 37.61248 -122.36501 21 ft 25 kts 118°
2026-04-22 01:29 37.61156 -122.36283 21 ft 29 kts 118°
2026-04-22 01:29 37.61068 -122.36073 22 ft 25 kts 116°
2026-04-22 01:30 37.61072 -122.35939 21 ft 13 kts 50°
2026-04-22 01:30 37.61163 -122.35874 21 ft 18 kts 359°
2026-04-22 01:30 37.61200 -122.35908 21 ft 0 kts 297°
2026-04-22 01:30 37.61251 -122.36028 21 ft 45 kts 298°
2026-04-22 01:31 37.61505 -122.36632 21 ft 108 kts 298°
2026-04-22 01:31 37.61932 -122.37654 59 ft 150 kts 296°
2026-04-22 01:31 37.62419 -122.38849 568 ft 157 kts 291°
2026-04-22 01:31 37.62907 -122.40039 1264 ft 155 kts 296°
2026-04-22 01:32 37.63431 -122.41255 1875 ft 159 kts 295°
2026-04-22 01:32 37.64005 -122.42586 2195 ft 183 kts 295°
2026-04-22 01:32 37.64635 -122.44067 2511 ft 202 kts 297°
2026-04-22 01:32 37.65363 -122.45687 2759 ft 220 kts 297°
2026-04-22 01:33 37.66132 -122.47395 3278 ft 227 kts 297°
2026-04-22 01:33 37.66817 -122.49227 3803 ft 238 kts 279°
2026-04-22 01:33 37.66656 -122.51309 4435 ft 245 kts 248°
2026-04-22 01:33 37.65636 -122.53037 5145 ft 252 kts 220°
2026-04-22 01:34 37.64023 -122.53945 5855 ft 262 kts 191°
2026-04-22 01:34 37.62189 -122.53807 6644 ft 269 kts 168°
2026-04-22 01:34 37.60404 -122.53028 7414 ft 273 kts 162°
2026-04-22 01:34 37.58629 -122.52115 8128 ft 278 kts 161°
2026-04-22 01:35 37.56823 -122.51193 8887 ft 282 kts 162°
2026-04-22 01:35 37.54992 -122.50295 9725 ft 284 kts 163°
2026-04-22 01:35 37.53127 -122.49407 10410 ft 292 kts 163°
2026-04-22 01:35 37.51142 -122.48478 10607 ft 316 kts 163°
2026-04-22 01:36 37.49044 -122.47353 10786 ft 343 kts 151°
2026-04-22 01:36 37.47247 -122.45267 11301 ft 357 kts 135°
2026-04-22 01:36 37.45564 -122.42936 12026 ft 362 kts 135°
2026-04-22 01:36 37.43862 -122.40582 12797 ft 365 kts 135°
2026-04-22 01:37 37.42136 -122.38205 13493 ft 371 kts 135°
2026-04-22 01:37 37.40372 -122.35788 14147 ft 378 kts 136°
2026-04-22 01:37 37.38591 -122.33354 15039 ft 375 kts 136°
2026-04-22 01:37 37.36827 -122.30948 15918 ft 376 kts 136°
2026-04-22 01:38 37.35032 -122.28510 16528 ft 384 kts 136°
2026-04-22 01:38 37.33200 -122.26027 17148 ft 390 kts 136°
2026-04-22 01:38 37.31344 -122.23513 17882 ft 394 kts 136°
2026-04-22 01:38 37.29474 -122.20982 18554 ft 398 kts 136°
2026-04-22 01:39 37.27566 -122.18404 18893 ft 411 kts 137°
2026-04-22 01:39 37.25590 -122.15739 19254 ft 421 kts 137°
2026-04-22 01:39 37.23579 -122.13027 19751 ft 428 kts 137°
2026-04-22 01:39 37.21534 -122.10269 20241 ft 435 kts 137°
2026-04-22 01:40 37.19457 -122.07471 20712 ft 442 kts 138°
2026-04-22 01:40 37.17371 -122.04658 21533 ft 439 kts 138°
2026-04-22 01:40 37.15272 -122.01831 21973 ft 447 kts 138°
2026-04-22 01:40 37.13122 -121.98944 22166 ft 460 kts 139°
2026-04-22 01:41 37.10901 -121.95970 22394 ft 472 kts 139°
2026-04-22 01:41 37.08653 -121.92956 22881 ft 477 kts 140°
2026-04-22 01:41 37.06406 -121.89943 23325 ft 483 kts 140°
2026-04-22 01:41 37.04092 -121.86843 23743 ft 490 kts 140°
2026-04-22 01:42 37.01755 -121.83714 24109 ft 494 kts 140°
2026-04-22 01:42 36.99402 -121.80562 24485 ft 497 kts 140°
2026-04-22 01:42 36.97028 -121.77390 24859 ft 501 kts 141°
2026-04-22 01:42 36.94642 -121.74203 25334 ft 502 kts 141°
2026-04-22 01:43 36.92248 -121.71010 25750 ft 505 kts 141°
2026-04-22 01:43 36.89837 -121.67799 26122 ft 509 kts 141°
2026-04-22 01:43 36.87404 -121.64563 26492 ft 512 kts 141°
2026-04-22 01:43 36.84960 -121.61317 26862 ft 515 kts 141°
2026-04-22 01:44 36.82496 -121.58047 27159 ft 518 kts 141°
2026-04-22 01:44 36.80021 -121.54764 27529 ft 521 kts 141°
2026-04-22 01:44 36.77531 -121.51464 27924 ft 523 kts 141°
2026-04-22 01:44 36.75039 -121.48162 28396 ft 523 kts 141°
2026-04-22 01:45 36.72544 -121.44861 28797 ft 524 kts 141°
2026-04-22 01:45 36.70035 -121.41547 29142 ft 527 kts 141°
2026-04-22 01:45 36.67515 -121.38224 29456 ft 529 kts 141°
2026-04-22 01:45 36.64983 -121.34885 29814 ft 530 kts 141°
2026-04-22 01:46 36.62448 -121.31547 30138 ft 532 kts 141°
2026-04-22 01:46 36.59903 -121.28199 30479 ft 532 kts 141°
2026-04-22 01:46 36.57366 -121.24861 30886 ft 530 kts 141°
2026-04-22 01:46 36.54841 -121.21541 31325 ft 527 kts 142°
2026-04-22 01:47 36.52332 -121.18246 31826 ft 521 kts 141°
2026-04-22 01:47 36.49888 -121.15041 32416 ft 516 kts 141°
2026-04-22 01:47 36.47421 -121.11813 32776 ft 516 kts 141°
2026-04-22 01:47 36.44943 -121.08580 33039 ft 518 kts 141°
2026-04-22 01:48 36.42460 -121.05331 33307 ft 520 kts 141°
2026-04-22 01:48 36.40041 -121.01993 33702 ft 520 kts 139°
2026-04-22 01:48 36.37683 -120.98590 34118 ft 518 kts 137°
2026-04-22 01:48 36.35363 -120.95183 34466 ft 517 kts 137°
2026-04-22 01:49 36.33043 -120.91775 34752 ft 517 kts 138°
2026-04-22 01:49 36.30715 -120.88382 35049 ft 516 kts 138°
2026-04-22 01:49 36.25992 -120.81585 35078 ft 521 kts 139°
2026-04-22 01:50 36.21267 -120.74827 35073 ft 515 kts 138°
2026-04-22 01:50 36.16589 -120.68154 35077 ft 512 kts 139°
2026-04-22 01:51 36.11908 -120.61496 35075 ft 512 kts 139°
2026-04-22 01:51 36.07234 -120.54855 35042 ft 512 kts 139°
2026-04-22 01:52 36.02567 -120.48235 35075 ft 512 kts 139°
2026-04-22 01:52 35.97884 -120.41605 35096 ft 512 kts 139°
2026-04-22 01:53 35.93188 -120.34968 35052 ft 515 kts 139°
2026-04-22 01:53 35.88468 -120.28344 35071 ft 512 kts 141°
2026-04-22 01:54 35.85896 -120.25384 35075 ft 501 kts 150°
2026-04-22 01:54 35.83058 -120.22983 35088 ft 490 kts 158°
2026-04-22 01:54 35.77200 -120.18725 35093 ft 488 kts 158°
2026-04-22 01:55 35.71380 -120.14408 35080 ft 488 kts 157°
2026-04-22 01:55 35.65628 -120.10072 35090 ft 488 kts 158°
2026-04-22 01:56 35.59857 -120.05712 35091 ft 486 kts 158°
2026-04-22 01:56 35.54102 -120.01366 35082 ft 484 kts 157°
2026-04-22 01:57 35.48367 -119.97046 35080 ft 484 kts 157°
2026-04-22 01:57 35.42630 -119.92733 35076 ft 483 kts 157°
2026-04-22 01:58 35.36899 -119.88430 35078 ft 483 kts 157°
2026-04-22 01:58 35.31159 -119.84129 34986 ft 487 kts 157°
2026-04-22 01:59 35.25482 -119.79575 34738 ft 491 kts 152°
2026-04-22 01:59 35.22774 -119.77031 34089 ft 493 kts 150°
2026-04-22 01:59 35.20084 -119.74410 33322 ft 493 kts 149°
2026-04-22 02:00 35.17417 -119.71809 32627 ft 493 kts 149°
2026-04-22 02:00 35.14721 -119.69219 31894 ft 493 kts 150°
2026-04-22 02:00 35.12004 -119.66651 31155 ft 494 kts 150°
2026-04-22 02:00 35.09277 -119.64102 30394 ft 495 kts 150°
2026-04-22 02:01 35.06533 -119.61554 29487 ft 497 kts 150°
2026-04-22 02:01 35.03777 -119.58999 28652 ft 496 kts 150°
2026-04-22 02:01 35.01058 -119.56471 28097 ft 488 kts 150°
2026-04-22 02:01 34.98372 -119.53976 27509 ft 483 kts 150°
2026-04-22 02:02 34.95710 -119.51505 26939 ft 478 kts 151°
2026-04-22 02:02 34.93074 -119.49063 26364 ft 474 kts 151°
2026-04-22 02:02 34.90456 -119.46647 25833 ft 469 kts 151°
2026-04-22 02:02 34.87856 -119.44301 25377 ft 462 kts 152°
2026-04-22 02:03 34.85278 -119.42004 24900 ft 456 kts 152°
2026-04-22 02:03 34.82714 -119.39728 24476 ft 458 kts 152°
2026-04-22 02:03 34.80140 -119.37442 24039 ft 458 kts 152°
2026-04-22 02:03 34.77619 -119.35190 23542 ft 453 kts 152°
2026-04-22 02:04 34.72602 -119.30729 22548 ft 440 kts 152°
2026-04-22 02:04 34.70131 -119.28574 22088 ft 434 kts 153°
2026-04-22 02:04 34.67690 -119.26449 21637 ft 429 kts 153°
2026-04-22 02:05 34.65280 -119.24348 21207 ft 423 kts 153°
2026-04-22 02:05 34.62906 -119.22290 20779 ft 417 kts 153°
2026-04-22 02:05 34.60550 -119.20262 20353 ft 413 kts 154°
2026-04-22 02:05 34.58218 -119.18255 19941 ft 408 kts 154°
2026-04-22 02:06 34.55913 -119.16270 19517 ft 405 kts 153°
2026-04-22 02:06 34.53640 -119.14271 19114 ft 402 kts 153°
2026-04-22 02:06 34.51395 -119.12275 18685 ft 399 kts 153°
2026-04-22 02:06 34.49162 -119.10289 18236 ft 397 kts 152°
2026-04-22 02:07 34.46937 -119.08315 17782 ft 394 kts 152°
2026-04-22 02:07 34.44729 -119.06362 17366 ft 391 kts 152°
2026-04-22 02:07 34.42533 -119.04439 16890 ft 389 kts 153°
2026-04-22 02:07 34.40343 -119.02544 16470 ft 385 kts 153°
2026-04-22 02:08 34.38191 -119.00683 16309 ft 374 kts 153°
2026-04-22 02:08 34.36092 -118.98866 15991 ft 368 kts 153°
2026-04-22 02:08 34.34014 -118.97069 15579 ft 367 kts 152°
2026-04-22 02:08 34.31963 -118.95232 15181 ft 366 kts 151°
2026-04-22 02:09 34.29951 -118.93392 14878 ft 359 kts 151°
2026-04-22 02:09 34.27967 -118.91580 14501 ft 356 kts 151°
2026-04-22 02:09 34.25988 -118.89783 14087 ft 355 kts 151°
2026-04-22 02:09 34.24022 -118.87990 13658 ft 353 kts 150°
2026-04-22 02:10 34.22076 -118.86199 13281 ft 349 kts 150°
2026-04-22 02:10 34.20172 -118.84443 13137 ft 339 kts 150°
2026-04-22 02:10 34.18327 -118.82743 13058 ft 328 kts 150°
2026-04-22 02:10 34.16538 -118.81097 12912 ft 319 kts 150°
2026-04-22 02:11 34.14856 -118.79387 12755 ft 315 kts 146°
2026-04-22 02:11 34.13240 -118.77611 12392 ft 314 kts 145°
2026-04-22 02:11 34.11629 -118.75821 12017 ft 314 kts 144°
2026-04-22 02:11 34.10021 -118.74044 11728 ft 312 kts 144°
2026-04-22 02:12 34.08423 -118.72295 11453 ft 310 kts 145°
2026-04-22 02:12 34.06838 -118.70569 11219 ft 303 kts 145°
2026-04-22 02:12 34.05807 -118.69452 11098 ft 298 kts 145°
2026-04-22 02:12 34.03789 -118.67194 10752 ft 298 kts 137°
2026-04-22 02:13 34.03050 -118.65778 10543 ft 309 kts 116°
2026-04-22 02:13 34.02589 -118.63251 10401 ft 308 kts 101°
2026-04-22 02:13 34.02371 -118.60692 10142 ft 307 kts 99°
2026-04-22 02:13 34.02159 -118.58131 9839 ft 307 kts 99°
2026-04-22 02:14 34.01937 -118.55589 9598 ft 303 kts 99°
2026-04-22 02:14 34.01712 -118.53092 9453 ft 296 kts 100°
2026-04-22 02:14 34.01488 -118.50668 9369 ft 287 kts 100°
2026-04-22 02:14 34.01267 -118.48315 9287 ft 278 kts 100°
2026-04-22 02:15 34.01063 -118.46037 9208 ft 271 kts 97°
2026-04-22 02:15 34.01261 -118.43798 9059 ft 268 kts 78°
2026-04-22 02:15 34.01688 -118.41618 8848 ft 266 kts 79°
2026-04-22 02:15 34.02083 -118.39450 8617 ft 264 kts 79°
2026-04-22 02:16 34.02463 -118.37285 8407 ft 263 kts 80°
2026-04-22 02:16 34.02818 -118.35142 8202 ft 259 kts 84°
2026-04-22 02:16 34.03047 -118.33021 8108 ft 250 kts 86°
2026-04-22 02:16 34.03244 -118.30975 8057 ft 241 kts 86°
2026-04-22 02:17 34.03422 -118.29001 7945 ft 234 kts 88°
2026-04-22 02:17 34.03565 -118.27068 7772 ft 230 kts 89°
2026-04-22 02:17 34.03694 -118.25152 7556 ft 228 kts 88°
2026-04-22 02:17 34.03822 -118.23256 7339 ft 226 kts 88°
2026-04-22 02:18 34.03966 -118.21362 7034 ft 229 kts 85°
2026-04-22 02:18 34.04148 -118.19455 6831 ft 227 kts 85°
2026-04-22 02:18 34.04334 -118.17579 6634 ft 225 kts 85°
2026-04-22 02:18 34.04522 -118.15706 6423 ft 224 kts 85°
2026-04-22 02:19 34.04697 -118.13851 6207 ft 222 kts 85°
2026-04-22 02:19 34.04872 -118.12002 5966 ft 222 kts 84°
2026-04-22 02:19 34.05077 -118.10162 5740 ft 221 kts 83°
2026-04-22 02:19 34.05095 -118.08346 5468 ft 216 kts 111°
2026-04-22 02:20 34.04226 -118.06992 5297 ft 200 kts 158°
2026-04-22 02:20 34.02919 -118.06821 5241 ft 191 kts 204°
2026-04-22 02:20 34.01899 -118.07794 5229 ft 189 kts 232°
2026-04-22 02:20 34.01056 -118.08993 5151 ft 185 kts 231°
2026-04-22 02:21 34.00237 -118.10149 5115 ft 178 kts 231°
2026-04-22 02:21 33.99435 -118.11282 5028 ft 182 kts 231°
2026-04-22 02:21 33.98538 -118.12561 4106 ft 214 kts 232°
2026-04-22 02:21 33.97567 -118.13937 3655 ft 217 kts 232°
2026-04-22 02:22 33.96587 -118.15316 3225 ft 220 kts 232°
2026-04-22 02:22 33.95880 -118.16909 2756 ft 219 kts 262°
2026-04-22 02:22 33.95809 -118.18731 2329 ft 216 kts 265°
2026-04-22 02:22 33.95614 -118.20491 1922 ft 206 kts 261°
2026-04-22 02:23 33.95421 -118.22118 1555 ft 192 kts 262°
2026-04-22 02:23 33.95255 -118.23651 1230 ft 178 kts 263°
2026-04-22 02:23 33.95107 -118.25067 1075 ft 165 kts 262°
2026-04-22 02:23 33.94963 -118.26375 1540 ft 164 kts 262°
2026-04-22 02:24 33.94795 -118.27773 1894 ft 172 kts 264°
2026-04-22 02:24 33.94689 -118.29199 1740 ft 162 kts 265°
2026-04-22 02:24 33.94543 -118.30478 1454 ft 144 kts 262°
2026-04-22 02:24 33.94410 -118.31646 1141 ft 135 kts 263°
2026-04-22 02:25 33.94309 -118.32738 1012 ft 130 kts 263°
2026-04-22 02:25 33.94191 -118.33846 835 ft 136 kts 262°
2026-04-22 02:25 33.94072 -118.34976 637 ft 134 kts 263°
2026-04-22 02:25 33.93961 -118.36073 438 ft 131 kts 263°
2026-04-22 02:26 33.93848 -118.37174 297 ft 134 kts 264°
2026-04-22 02:26 33.93738 -118.38256 133 ft 127 kts 263°
2026-04-22 02:26 33.93645 -118.39193 93 ft 99 kts 263°
2026-04-22 02:26 33.93577 -118.39841 97 ft 57 kts 263°
2026-04-22 02:27 33.93574 -118.40176 95 ft 26 kts 276°
2026-04-22 02:27 33.93600 -118.40303 94 ft 0 kts 290°
2026-04-22 02:27 33.93605 -118.40318 94 ft 10 kts 290°
2026-04-22 02:27 33.93626 -118.40446 94 ft 18 kts 266°
2026-04-22 02:28 33.93610 -118.40592 95 ft 17 kts 262°
2026-04-22 02:28 33.93598 -118.40719 93 ft 14 kts 262°
2026-04-22 02:28 33.93622 -118.40866 94 ft 18 kts 309°
2026-04-22 02:28 33.93725 -118.40904 93 ft 17 kts 353°
2026-04-22 02:29 33.93837 -118.40919 94 ft 16 kts
2026-04-22 02:29 33.93872 -118.40875 92 ft 6 kts 84°
2026-04-22 02:29 33.93881 -118.40790 92 ft 14 kts 79°
2026-04-22 02:29 33.93893 -118.40673 92 ft 14 kts 83°
2026-04-22 02:30 33.93905 -118.40559 92 ft 13 kts 83°
2026-04-22 02:30 33.93914 -118.40468 93 ft 10 kts 83°
2026-04-22 02:30 33.93923 -118.40389 93 ft 10 kts 82°
2026-04-22 02:30 33.93952 -118.40315 93 ft 13 kts 33°
2026-04-22 02:31 33.94054 -118.40317 94 ft 14 kts 352°
2026-04-22 02:31 33.94102 -118.40303 92 ft 7 kts 52°
2026-04-22 02:31 33.94107 -118.40278 92 ft 1 kts 82°
2026-04-22 02:31 33.94108 -118.40270 92 ft 1 kts 82°
2026-04-22 02:32 33.94109 -118.40266 92 ft 0 kts 82°